Wind_Speed
2 2 2 2 1 0 1 1 1 1 1 0 0 0 1 1 1 1 1 2 2 2 2 3 4 4 4 4 4 4 4 4 4 4 4 5 4 4 4 4 4 4 5 5 5 6 6 7 7
2 2 2 1 1 0 1 1 1 1 1 1 1 1 1 2 2 2 2 2 3 3 3 4 5 5 5 5 5 5 5 5 4 4 4 5 5 5 5 4 5 5 6 6 6 6 7 7 8
2 2 2 1 1 0 0 1 1 1 1 1 1 2 2 2 2 2 3 3 3 4 4 5 6 6 6 6 5 5 6 6 5 5 5 5 6 6 6 5 5 6 7 7 6 6 7 8 8
1 2 2 1 1 1 1 1 1 1 1 1 2 2 2 3 3 3 3 4 4 4 5 6 6 6 6 6 6 6 6 6 6 6 6 6 6 6 6 6 6 7 7 7 8 7 7 8 9
1 1 1 1 1 1 1 0 0 1 1 2 2 3 3 3 4 4 4 4 5 5 6 6 6 7 7 7 7 7 7 6 6 7 7 7 7 7 7 7 7 7 7 7 8 9 8 9 9
1 0 0 0 1 1 0 0 1 1 2 2 2 3 3 4 4 4 4 5 5 6 6 6 7 7 7 8 8 8 7 7 7 6 6 6 7 7 7 8 8 7 8 8 9 10 10 10 10
1 0 0 0 0 1 1 0 1 1 2 2 3 3 4 4 5 5 5 5 6 6 6 7 7 7 7 7 7 7 7 7 7 7 7 7 7 7 8 8 8 9 9 9 9 9 10 10 10
1 1 0 0 0 1 1 1 1 2 2 3 3 4 5 5 5 5 6 6 6 6 6 6 7 7 7 7 7 7 7 7 7 7 7 7 7 7 8 8 9 9 9 9 9 10 10 11 11
1 1 1 1 0 1 1 1 2 3 3 3 4 4 5 6 6 6 6 6 6 6 6 7 7 7 7 7 7 7 7 7 7 7 7 8 8 8 8 9 9 9 9 9 10 10 11 11 11
1 1 1 0 1 1 1 2 2 3 4 4 4 5 6 6 6 6 6 6 6 7 7 7 7 8 8 7 7 7 7 7 7 8 8 8 8 8 8 9 10 10 9 9 8 10 10 10 11
0 1 1 1 1 1 2 2 3 3 4 4 5 6 6 6 6 6 6 7 7 8 8 8 8 9 8 8 8 7 7 7 8 8 8 8 8 8 8 9 9 9 9 9 8 9 10 10 10
1 2 1 2 2 2 3 3 4 4 5 5 6 6 6 7 7 7 7 8 8 8 9 9 9 9 9 8 8 7 7 7 8 9 9 9 9 8 8 9 9 10 10 10 10 9 9 9 11
3 3 2 3 3 3 4 4 5 5 5 5 6 6 7 7 8 7 8 8 8 9 9 9 9 9 8 7 7 7 7 8 8 8 8 9 9 8 8 8 8 9 9 10 10 11 10 10 11
3 3 3 4 4 4 4 5 5 5 6 6 6 6 7 7 7 7 8 8 9 9 9 9 8 8 7 7 7 7 7 7 7 8 8 8 8 8 8 8 8 9 9 9 9 10 10 10 11
4 4 4 5 5 5 5 6 5 6 6 7 7 6 7 7 7 8 9 9 9 9 8 8 8 7 7 7 7 7 7 7 7 8 7 8 8 8 8 8 8 9 9 9 10 10 10 10 11
5 5 5 5 6 5 6 6 6 6 7 7 7 7 7 8 8 8 8 8 8 8 8 8 7 7 6 6 6 6 6 6 7 7 7 7 7 7 8 8 8 8 8 8 9 9 9 9 10
5 5 5 5 5 6 6 6 6 6 6 6 7 7 7 7 8 9 9 8 8 7 7 7 7 6 6 6 6 6 6 6 7 6 7 7 5 5 6 6 6 7 7 7 7 8 8 8 9
6 5 6 6 7 7 7 7 7 6 6 6 7 7 7 7 7 8 8 7 7 6 6 6 6 5 5 6 6 6 6 6 6 5 6 5 4 4 4 4 5 5 6 6 6 7 7 7 7
7 7 7 8 8 7 7 7 7 7 6 7 7 7 7 7 7 7 7 6 6 5 5 5 5 5 6 6 6 6 5 5 5 4 4 4 4 3 3 3 3 3 5 5 6 6 6 6 7
7 7 7 7 8 8 8 7 7 6 6 6 7 8 7 7 7 7 6 6 6 5 5 5 5 5 5 5 5 5 4 3 4 4 4 3 3 3 3 3 3 3 3 4 5 5 6 6 6
7 8 8 8 8 8 7 6 6 5 5 6 7 7 6 6 6 6 5 5 5 5 4 4 5 5 5 5 4 4 3 4 4 3 3 3 2 2 3 3 3 4 4 4 5 5 5 5 5
8 8 8 8 8 8 7 7 6 6 6 6 6 5 5 5 6 6 5 5 5 4 4 5 5 5 4 4 4 4 4 4 4 3 3 3 3 3 3 3 3 3 4 5 5 5 5 5 6
9 8 8 8 8 8 8 8 7 7 6 6 5 5 6 6 6 6 5 5 4 5 5 4 4 4 5 5 5 5 4 4 4 4 3 3 3 4 4 4 4 3 4 4 4 5 5 5 6
9 9 9 8 8 9 8 8 7 7 7 7 6 6 6 6 6 6 6 5 5 5 5 4 4 5 5 5 5 5 4 4 5 4 4 3 3 4 4 4 4 4 4 5 5 5 5 6 6
10 9 9 9 10 10 8 9 8 7 7 7 7 7 7 7 6 6 6 6 6 6 5 5 5 6 6 6 5 6 6 5 5 4 4 4 4 4 4 4 4 5 5 6 6 6 6 6 6
11 11 11 11 11 11 10 10 9 8 8 8 8 8 8 8 7 6 6 6 6 6 5 5 5 6 6 6 6 6 6 6 5 4 4 5 5 4 5 5 5 5 5 5 6 6 6 6 6
14 13 12 12 12 12 12 11 10 9 9 9 9 9 8 8 8 7 7 7 7 7 6 6 6 6 6 6 6 6 6 6 6 5 5 6 6 5 5 5 5 5 5 6 6 6 7 7 6
14 14 14 14 13 13 13 12 11 11 10 10 10 10 9 9 8 8 8 8 8 8 8 8 7 6 6 6 6 6 6 6 6 5 6 6 6 6 5 5 5 6 6 7 7 7 7 7 7
16 16 15 15 15 14 14 13 12 12 12 11 11 11 10 10 10 9 9 9 9 9 8 8 8 7 7 6 6 6 6 6 6 6 6 6 6 6 6 6 6 6 7 7 8 7 7 7 7
17 17 16 16 16 16 16 15 14 14 14 14 13 13 12 11 10 10 10 10 9 9 9 9 9 9 8 8 7 7 7 7 7 7 7 7 7 7 8 7 7 7 8 8 8 8 7 7 7
Wind_Direction
18 32 31 48 85 154 236 226 245 258 271 325 41 16 360 322 300 273 300 300 300 306 302 294 291 289 284 280 270 260 245 247 256 258 255 250 245 242 240 244 243 235 221 218 216 216 215 215 212
20 24 30 44 66 264 227 187 209 244 280 308 325 316 311 313 298 282 278 288 289 292 296 298 293 286 280 278 267 256 251 255 258 259 258 254 247 246 251 246 244 233 222 222 222 229 221 220 219
8 17 26 37 23 310 227 220 254 270 287 308 304 290 293 301 299 276 276 288 285 287 291 293 291 282 271 270 271 261 256 258 259 260 261 259 255 254 256 252 246 236 228 227 228 230 227 223 222
349 0 1 357 343 316 287 288 291 272 281 298 297 289 287 293 297 288 285 282 281 284 287 285 282 276 272 268 266 266 264 260 255 259 262 257 252 251 256 256 248 242 233 232 235 237 234 230 224
321 335 329 321 312 287 278 264 309 285 282 294 298 299 296 295 299 294 288 284 284 289 287 284 283 280 278 270 263 264 264 260 258 259 262 257 253 254 257 254 251 245 239 238 241 241 240 236 227
277 307 316 324 279 219 158 209 281 305 301 305 302 300 311 309 308 301 294 293 293 292 291 288 287 285 282 274 268 266 264 262 261 261 263 258 254 257 260 255 255 247 242 243 243 241 239 235 230
133 138 153 287 272 204 175 233 321 317 320 310 304 302 307 312 312 302 300 299 298 294 289 290 291 293 293 286 273 268 264 266 264 262 264 262 259 261 262 259 256 251 246 241 239 240 239 236 234
102 96 90 324 276 233 233 261 304 308 310 309 305 305 307 310 311 308 302 300 298 296 292 295 296 296 297 293 280 275 271 267 263 262 265 266 267 266 265 262 258 251 246 241 239 242 241 241 239
86 69 65 35 315 266 264 274 292 297 299 301 301 305 308 306 305 304 304 302 300 298 300 301 297 293 293 295 287 278 275 268 261 261 263 267 267 265 263 259 256 255 253 246 240 245 245 244 241
91 67 45 306 274 274 293 299 301 298 307 306 306 306 308 308 301 298 299 300 301 298 300 302 298 294 290 290 285 280 277 271 265 266 269 268 265 268 265 260 257 258 252 247 246 247 246 243 241
274 299 293 265 271 274 290 294 299 298 300 301 307 311 310 308 305 297 295 296 297 297 297 298 298 294 288 284 279 279 278 275 271 270 271 269 268 268 266 260 256 256 254 253 256 255 249 243 242
287 282 282 298 289 278 292 300 298 293 297 305 306 306 303 301 301 298 292 292 294 296 297 297 298 292 286 282 277 277 280 279 276 272 268 265 265 265 262 259 257 256 257 257 260 260 256 247 243
277 278 279 297 299 296 298 300 301 297 301 307 308 303 297 295 298 298 293 290 291 294 297 300 301 297 287 278 275 276 278 281 277 275 269 264 262 262 260 262 261 259 258 256 258 261 261 251 247
271 273 279 288 296 298 298 300 298 297 304 306 305 304 301 298 297 298 297 292 289 294 297 299 305 302 289 280 274 275 277 282 282 276 272 271 270 263 261 263 263 261 259 258 260 262 259 256 254
277 277 284 289 295 302 302 302 300 298 300 302 303 302 300 302 299 298 299 295 292 294 296 300 304 306 295 287 282 277 279 280 283 279 273 276 274 263 261 262 261 261 259 258 259 261 258 259 258
284 284 286 291 291 298 300 303 301 299 301 301 305 304 302 302 303 301 302 299 294 295 298 301 302 305 304 298 293 287 285 283 287 283 280 283 277 265 261 260 259 259 259 257 258 258 259 257 259
279 291 291 293 297 301 302 303 305 306 305 305 304 305 307 306 303 302 303 300 294 290 294 299 299 303 306 305 302 295 291 288 286 284 287 291 286 272 262 260 260 258 258 256 259 259 258 259 260
275 281 288 292 293 297 298 299 302 302 303 304 304 303 305 306 309 308 305 303 297 295 296 302 301 301 305 306 304 302 297 291 291 290 292 290 289 277 275 265 262 260 259 258 259 260 257 261 259
272 282 290 291 293 297 294 294 296 296 295 296 297 301 304 304 310 311 308 307 303 299 299 303 304 301 303 304 304 306 301 295 294 299 301 291 280 279 282 276 271 269 266 267 268 260 261 264 263
269 276 282 284 289 296 294 292 293 293 294 295 300 301 302 306 311 312 306 302 302 299 297 300 305 306 306 307 310 314 315 307 304 300 303 291 276 277 276 273 268 269 272 271 266 263 268 275 274
267 272 275 280 284 290 296 295 296 296 298 301 303 302 298 303 313 314 301 294 299 295 297 301 304 307 305 312 314 321 322 325 318 309 303 299 287 282 283 276 270 269 275 281 276 276 283 283 278
262 266 271 279 280 283 289 291 301 299 300 307 310 313 314 309 311 314 305 293 296 295 294 297 307 311 306 313 317 312 322 331 330 316 305 293 284 283 287 286 283 277 277 276 273 279 288 285 282
257 263 270 277 278 279 283 285 290 296 301 305 307 311 315 312 308 310 308 299 297 299 294 293 300 310 315 312 309 311 310 315 317 309 304 303 291 288 288 284 288 281 283 285 280 280 286 287 284
255 261 269 275 276 276 280 281 284 291 294 297 303 305 307 307 308 305 304 306 303 298 294 288 289 299 308 310 304 301 301 305 305 304 305 308 303 296 296 292 291 291 286 287 291 283 291 288 287
251 258 268 272 273 274 276 276 280 286 288 287 290 297 301 302 306 305 304 306 304 298 294 290 291 297 301 301 298 289 286 290 293 293 303 310 311 301 291 296 295 293 289 287 289 287 293 291 284
247 253 260 267 269 271 270 272 277 283 284 284 285 290 296 296 295 296 299 302 300 296 294 296 302 301 301 299 299 290 281 282 279 284 295 301 305 304 295 298 298 298 296 293 291 293 293 289 283
246 250 256 261 265 269 270 272 274 276 279 279 281 284 289 290 286 286 289 292 295 292 291 292 297 302 300 297 295 290 281 277 271 278 293 298 296 294 292 296 297 302 302 303 301 298 295 290 281
244 249 254 258 263 268 270 271 271 272 275 277 281 280 280 281 278 280 285 288 290 291 292 292 293 300 303 301 296 289 284 280 273 275 285 293 289 290 287 288 289 293 294 300 302 301 299 294 285
244 249 255 258 260 262 268 271 270 270 273 275 275 280 283 282 273 276 281 285 284 284 288 288 289 296 301 296 293 286 283 281 278 280 286 290 288 287 288 289 292 292 293 294 296 294 295 291 284
246 249 252 255 259 262 265 269 270 269 270 272 273 277 279 279 275 274 273 278 278 279 282 282 284 288 292 291 287 284 281 279 277 280 284 288 291 288 286 289 293 296 295 292 294 292 291 290 287
Height
5887 5886 5886 5886 5887 5887 5886 5887 5887 5887 5887 5887 5886 5886 5886 5886 5886 5887 5885 5883 5883 5882 5881 5881 5880 5880 5879 5879 5879 5878 5877 5877 5877 5877 5876 5876 5876 5876 5875 5875 5875 5874 5874 5875 5876 5876 5877 5877 5878
5886 5886 5887 5887 5886 5886 5886 5886 5886 5886 5886 5886 5885 5885 5885 5884 5884 5884 5882 5882 5882 5881 5880 5880 5879 5879 5878 5878 5877 5877 5877 5876 5876 5876 5875 5875 5875 5874 5874 5874 5874 5874 5874 5874 5875 5875 5876 5876 5877
5886 5886 5887 5886 5886 5886 5886 5886 5886 5885 5886 5885 5885 5885 5884 5884 5883 5882 5882 5881 5881 5880 5879 5879 5878 5878 5877 5876 5876 5876 5875 5875 5875 5875 5874 5874 5873 5873 5873 5873 5873 5873 5873 5873 5874 5874 5874 5875 5875
5886 5887 5887 5886 5885 5886 5885 5885 5885 5885 5885 5885 5884 5884 5883 5883 5882 5882 5881 5880 5880 5879 5878 5877 5877 5876 5876 5875 5875 5874 5874 5874 5874 5873 5873 5873 5872 5872 5872 5872 5872 5872 5872 5872 5872 5873 5873 5873 5874
5885 5886 5886 5885 5885 5885 5885 5885 5885 5885 5884 5884 5884 5883 5882 5882 5881 5880 5880 5879 5878 5878 5877 5876 5876 5875 5875 5874 5873 5873 5873 5872 5872 5872 5872 5871 5871 5871 5870 5870 5870 5870 5870 5870 5871 5871 5872 5872 5872
5885 5886 5886 5885 5885 5885 5884 5884 5884 5884 5884 5883 5883 5883 5882 5881 5880 5880 5879 5878 5877 5877 5876 5875 5874 5874 5873 5872 5872 5871 5871 5871 5871 5870 5870 5870 5870 5869 5869 5869 5869 5869 5869 5869 5869 5869 5870 5870 5871
5885 5885 5885 5885 5884 5884 5884 5884 5884 5883 5883 5883 5882 5882 5881 5880 5879 5878 5878 5877 5876 5875 5874 5874 5873 5872 5872 5871 5870 5870 5870 5869 5869 5869 5869 5868 5868 5868 5867 5867 5867 5867 5867 5867 5867 5868 5868 5868 5869
5884 5885 5884 5884 5884 5884 5884 5883 5883 5882 5882 5882 5881 5881 5880 5879 5878 5877 5876 5876 5875 5874 5873 5872 5872 5871 5870 5869 5869 5868 5868 5868 5868 5867 5867 5867 5866 5866 5866 5866 5865 5865 5865 5865 5865 5866 5866 5866 5867
5884 5885 5884 5884 5884 5883 5883 5882 5882 5882 5881 5881 5880 5880 5879 5878 5877 5876 5875 5874 5874 5873 5872 5871 5870 5870 5869 5868 5867 5867 5866 5866 5866 5865 5865 5865 5865 5864 5864 5864 5863 5863 5863 5863 5863 5863 5864 5864 5865
5883 5884 5883 5883 5883 5882 5882 5882 5882 5881 5880 5880 5879 5878 5877 5876 5876 5875 5874 5873 5872 5871 5870 5870 5869 5868 5867 5866 5866 5865 5865 5864 5864 5864 5863 5863 5863 5862 5862 5862 5861 5861 5861 5861 5861 5861 5862 5862 5862
5882 5883 5882 5882 5882 5882 5881 5881 5880 5880 5879 5879 5878 5877 5876 5875 5874 5873 5873 5872 5871 5870 5869 5868 5867 5866 5865 5865 5864 5864 5863 5863 5862 5862 5861 5861 5861 5860 5860 5860 5860 5859 5859 5859 5859 5859 5859 5859 5860
5882 5881 5881 5881 5881 5881 5880 5880 5879 5879 5878 5878 5877 5876 5875 5874 5873 5872 5871 5870 5869 5868 5867 5866 5865 5864 5863 5863 5862 5862 5861 5861 5860 5860 5860 5859 5859 5858 5858 5858 5857 5857 5857 5857 5857 5857 5857 5857 5858
5881 5881 5880 5880 5880 5880 5879 5879 5878 5877 5877 5876 5875 5874 5873 5872 5871 5870 5869 5869 5868 5867 5866 5864 5863 5862 5861 5861 5860 5860 5859 5859 5858 5858 5858 5857 5856 5856 5856 5856 5855 5855 5855 5855 5855 5855 5855 5855 5855
5880 5880 5880 5879 5879 5878 5878 5877 5877 5876 5875 5875 5874 5873 5872 5871 5870 5869 5868 5867 5866 5865 5864 5863 5861 5860 5860 5859 5858 5858 5858 5857 5856 5856 5856 5855 5854 5854 5854 5853 5853 5853 5853 5853 5853 5853 5853 5853 5853
5879 5879 5879 5878 5878 5877 5877 5877 5876 5875 5874 5873 5872 5871 5870 5869 5868 5867 5866 5865 5864 5863 5862 5861 5860 5859 5858 5857 5857 5856 5856 5855 5855 5854 5853 5853 5852 5852 5852 5851 5851 5851 5851 5851 5851 5851 5851 5851 5851
5878 5878 5878 5877 5876 5876 5877 5876 5875 5874 5873 5872 5871 5870 5869 5868 5867 5866 5865 5864 5863 5861 5860 5859 5859 5858 5857 5856 5855 5855 5854 5854 5853 5852 5852 5851 5850 5850 5849 5849 5849 5849 5849 5849 5849 5849 5849 5849 5849
5876 5877 5876 5876 5875 5875 5875 5874 5873 5872 5871 5870 5869 5868 5868 5866 5865 5864 5863 5862 5861 5860 5859 5858 5858 5857 5856 5855 5854 5854 5853 5852 5852 5851 5850 5849 5848 5848 5847 5847 5847 5847 5847 5847 5847 5847 5847 5846 5846
5875 5875 5875 5874 5874 5873 5873 5872 5872 5871 5870 5869 5868 5867 5866 5865 5864 5863 5862 5861 5860 5859 5858 5857 5857 5856 5855 5854 5853 5853 5852 5851 5850 5850 5849 5848 5847 5847 5846 5846 5846 5846 5846 5845 5845 5845 5845 5845 5844
5873 5873 5873 5873 5872 5871 5871 5871 5870 5869 5868 5867 5866 5866 5865 5864 5863 5861 5860 5859 5858 5858 5857 5856 5856 5855 5854 5853 5853 5852 5851 5850 5849 5848 5847 5847 5846 5846 5845 5845 5845 5844 5844 5844 5844 5844 5843 5843 5843
5871 5871 5871 5871 5870 5870 5869 5869 5868 5868 5867 5866 5865 5864 5863 5862 5861 5860 5859 5858 5857 5857 5856 5855 5855 5854 5853 5852 5851 5851 5849 5848 5848 5847 5847 5846 5845 5845 5845 5844 5844 5843 5843 5843 5842 5842 5842 5841 5841
5869 5869 5869 5869 5869 5868 5868 5868 5867 5866 5865 5865 5864 5863 5862 5861 5860 5859 5858 5857 5856 5856 5855 5854 5854 5853 5852 5851 5851 5850 5849 5848 5847 5847 5846 5845 5845 5844 5844 5843 5843 5843 5842 5842 5841 5841 5841 5840 5840
5867 5867 5867 5867 5867 5867 5867 5867 5866 5865 5864 5863 5862 5861 5861 5860 5859 5858 5857 5856 5856 5855 5854 5854 5853 5852 5851 5851 5850 5849 5848 5848 5847 5846 5845 5845 5844 5844 5843 5842 5842 5842 5841 5841 5840 5840 5840 5839 5839
5864 5864 5865 5865 5865 5865 5865 5865 5865 5863 5862 5862 5861 5860 5859 5859 5858 5857 5856 5855 5854 5854 5853 5853 5852 5851 5851 5850 5849 5848 5848 5847 5846 5845 5845 5844 5844 5843 5842 5842 5841 5841 5840 5840 5839 5839 5838 5838 5838
5861 5862 5862 5862 5863 5863 5863 5863 5863 5862 5861 5860 5860 5859 5858 5857 5856 5856 5855 5854 5853 5853 5852 5852 5851 5850 5850 5849 5848 5847 5847 5846 5846 5845 5844 5843 5843 5842 5842 5841 5840 5840 5839 5839 5838 5838 5837 5837 5836
5859 5860 5861 5860 5861 5861 5861 5860 5861 5860 5859 5858 5858 5857 5856 5856 5855 5854 5854 5853 5852 5852 5851 5850 5850 5849 5849 5848 5847 5846 5846 5845 5845 5844 5843 5843 5842 5841 5841 5840 5839 5839 5838 5838 5837 5836 5836 5835 5834
5855 5857 5858 5859 5858 5858 5858 5857 5859 5857 5857 5856 5856 5855 5854 5854 5853 5853 5852 5852 5851 5850 5850 5849 5849 5848 5847 5846 5845 5845 5844 5844 5844 5843 5842 5842 5841 5840 5840 5839 5838 5838 5837 5836 5836 5835 5834 5833 5833
5852 5853 5854 5855 5854 5855 5855 5855 5855 5855 5854 5854 5853 5853 5852 5852 5851 5851 5850 5850 5849 5849 5848 5848 5847 5846 5846 5845 5844 5843 5843 5842 5842 5842 5841 5841 5840 5839 5838 5838 5837 5837 5836 5835 5834 5833 5832 5832 5831
5848 5849 5850 5850 5851 5851 5852 5852 5853 5852 5851 5851 5851 5850 5849 5849 5849 5848 5848 5848 5847 5847 5846 5846 5845 5845 5844 5843 5842 5841 5841 5841 5841 5840 5840 5839 5838 5838 5837 5837 5836 5835 5835 5834 5833 5832 5831 5830 5829
5844 5845 5845 5846 5847 5848 5848 5851 5849 5849 5848 5848 5847 5847 5846 5846 5846 5846 5845 5845 5845 5844 5844 5844 5843 5842 5842 5841 5840 5840 5839 5839 5839 5839 5838 5838 5837 5836 5836 5835 5834 5834 5833 5832 5831 5830 5829 5828 5828
5839 5840 5841 5843 5843 5844 5844 5848 5845 5845 5845 5844 5844 5844 5843 5843 5843 5843 5843 5842 5842 5842 5842 5841 5841 5840 5840 5839 5838 5838 5837 5837 5837 5837 5836 5836 5835 5835 5834 5833 5833 5832 5831 5830 5829 5828 5827 5826 5826